THOR AGENA D R/B

Last updated on Sun Aug 09 2026 00:02:08 GMT+0000 (Coordinated Universal Time)

1 00733U 64002A 26220.62452997 .00000073 00000+0 43117-4 0 9990 2 00733 99.1156 242.1850 0032952 174.3169 185.8395 14.34084408260070
UTC large
Height (km)
Speed (km/s)
/
Latitude / Longitude
Inclination (degrees)
Orbital Period (minutes)
Azimuth
Elevation
Range (km)
Doppler Factor

Next 0 passes for location: London (51.5072 / 0.1276)

No passes found over London.
THOR AGENA D R/B